Printer-friendly version

IAU Minor Planet Center

Minor Planet Center

MPEC 2003-F62 : 2000 SH8

The following Minor Planet Electronic Circular may be linked-to from your own Web pages, but must not otherwise be redistributed electronically.


Read MPEC 2003-F61 Read MPEC 2003-F63


M.P.E.C. 2003-F62                                Issued 2003 Mar. 30, 17:00 UT

     The Minor Planet Electronic Circulars contain information on unusual
         minor planets and routine data on comets.  They are published
   on behalf of Commission 20 of the International Astronomical Union by the
          Minor Planet Center, Smithsonian Astrophysical Observatory,
                          Cambridge, MA 02138, U.S.A.

             Prepared using the Tamkin Foundation Computer Network

                              MPC@CFA.HARVARD.EDU
          URL http://cfa-www.harvard.edu/iau/mpc.html  ISSN 1523-6714

                                   2000 SH8

                           Revision to MPEC 2001-E01

Additional Observations:
     K00S08H IC2003 03 28.80355 02 35 30.62 +63 44 03.8                      540
     K00S08H IC2003 03 28.80795 02 35 34.63 +63 44 08.2          20   R      540
     K00S08H IC2003 03 29.79245 02 50 31.55 +64 01 09.8          20.1 R      540

Observer details:
540 Linz.  Observer E. Meyer.  0.6-m f/3.3 reflector + CCD.

First and last observations above in comparison with prediction:
Residuals in seconds of arc, reference and Delta-T
030328 540 10.6- 10.6-    030329 540 12.7- 10.5-    MPO 12245   +0.0046 day

Orbital elements:
2000 SH8
Epoch 2003 June 10.0 TT = JDT 2452800.5                 MPC
M  49.14108              (2000.0)            P               Q
n   0.44928570     Peri.   86.34924     +0.04490953     -0.99859225
a   1.6883183      Node     1.94239     +0.17808023     -0.01979860
e   0.4893023      Incl.   56.38019     +0.98299062     +0.04920907
P   2.19           H   18.8           G   0.15           U   1
Residuals in seconds of arc
000921 704  0.0   0.3+    000924 808  1.0+  0.9+    000927 360  0.1+  0.5-
000921 704  0.2+  0.7-    000924 808  0.0   1.8-    000927 360  0.0   0.3-
000921 704  0.1-  0.2-    000924 808  0.3-  0.5-    000927 900  0.2+  0.3-
000921 704  0.2-  0.2-    000924 808  0.0   0.2+    000927 900  0.2+  0.3-
000922 808  1.2-  0.7-    000924 860  0.6-  0.3+    000927 118  0.4-  0.3-
000922 860  0.2+  0.2-    000924 860  1.6-  0.0     000927 118  0.3-  0.4-
000922 860  0.1-  1.0-    000924 860  0.4+  0.2+    000927 118  0.3-  0.3-
000922 860  0.7-  0.1+    000924 808  0.4+  0.9+    000928 118  0.2+  0.6-
000922 860  0.6-  0.1+    000924 808 (2.0+  3.1-)   000928 118  0.4+  0.4-
000922 704  0.4+  0.0     000924 808  1.1+  1.9-    000928 118  0.1+  0.1-
000922 704  0.0   0.1+    000924 808  1.1-  0.3-    000930 046  0.9-  0.2+
000922 151  0.7-  0.9-    000924 808 (0.1-  3.2+)   000930 046  0.8-  0.1+
000922 151  0.5-  0.8-    000924 704  0.5-  0.4+    000930 046  0.6-  0.1-
000922 151  0.3-  0.8-    000924 704  0.1-  0.1+    000930 046  0.1-  0.2-
000922 151  1.0-  0.2-    000924 704  0.2-  0.8+    000930 046  1.2-  0.1+
000922 151  1.4-  0.1-    000924 704  0.1+  0.4+    001004 704  0.1+  0.4+
000922 151  0.4-  0.9-    000924 704  0.1+  0.0     001004 704  0.1-  0.0
000923 808  0.0   0.5+    000924 704  0.2+  0.4+    001004 704  0.2-  0.4+
000923 808  1.8+  0.5-    000924 704  0.1-  0.0     001004 704  0.1-  0.5+
000923 808  1.0-  1.6+    000924 704  0.2-  0.1+    001004 704  0.1+  0.3+
000923 808  0.6-  1.7-    000924 704  0.3+  0.1+    001004 118  0.2-  0.1+
000923 853  0.8+  0.3+    000924 704  0.3+  0.4+    001004 118  0.2+  0.1-
000923 853  0.7+  0.2+    000924 704  0.5+  0.2+    001004 118  0.2+  0.1+
000923 853  0.7+  0.1+    000924 704  0.3+  0.2-    001123 696  0.2+  0.7+
000923 704  0.1+  0.1+    000924 704  0.2+  0.0     001123 696  0.7+  0.1+
000923 704  0.5+  0.6+    000924 704  0.4+  0.4-    010228 046  0.4+  0.7+
000923 704  0.0   0.0     000925 859  0.4-  0.0     010228 046  0.3-  0.2-
000923 704  0.2+  0.4+    000925 859  0.9+  0.7-    010228 046  0.8+  0.1+
000923 704  0.1+  0.1-    000925 859  0.6-  0.3+    010228 046  0.3-  0.6+
000923 704  0.2+  0.2+    000925 704  0.5-  0.3+    010228 046  0.1+  0.8+
000923 704  0.2-  0.1-    000925 670  0.3+  0.1-    010228 046  0.7+  0.3+
000923 704  0.2-  0.3+    000925 704  0.2-  0.1+    010228 046  0.2+  0.2-
000923 704  0.1-  0.1-    000925 704  0.7+  1.5+    010301 046  0.3-  0.6+
000923 108  0.1+  0.8+    000925 704  0.6+  0.5+    010301 046  1.0+  0.5+
000923 108  0.1+  2.2+    000925 704  0.2+  0.3+    010301 046  0.6+  0.2+
000923 108  3.0+  0.2-    000925 670  0.2-  0.4-    010301 046  0.5+  0.5-
000923 108  2.7+  1.1-    000926 118  0.9-  0.2-    010321 360  0.2+  0.7-
000923 967  0.7+  0.5-    000926 118  1.0-  0.0     010321 360  0.4+  0.7-
000923 967  0.0   1.6-    000926 118  1.0-  0.4+    010321 360  0.4+  0.8-
000923 967  0.3-  0.8-    000927 691  0.5-  1.0+    030328 540  0.6+  0.1-
000923 967  1.0-  0.3-    000927 691  0.4-  0.9+    030328 540  1.1+  0.9-
000923 967  0.0   0.1+    000927 691  0.0   1.9+    030329 540  0.5-  0.8-
000923 967  0.0   0.4-    000927 691  0.4-  0.6+
000924 808  0.3+  1.5+    000927 360  0.2+  0.5-

Ephemeris:
2000 SH8                 a,e,i = 1.69, 0.49, 56                  q = 0.8622
Date    TT    R. A. (2000) Decl.     Delta      r     Elong.  Phase     V
2003 03 22    01 09.97   +59 47.1    0.843    0.940    60.8    67.7    20.7
2003 04 01    03 25.64   +64 17.8    0.771    0.995    67.0    67.5    20.6
2003 04 11    05 56.01   +58 49.4    0.749    1.059    72.8    64.7    20.6
2003 04 21    07 26.58   +46 30.0    0.786    1.128    77.0    60.2    20.7
2003 05 01    08 16.50   +33 39.8    0.876    1.200    78.8    55.4    20.9
2003 05 11    08 48.40   +22 49.6    1.004    1.274    78.5    50.9    21.2
2003 05 21    09 11.93   +14 12.4    1.156    1.348    76.6    46.9    21.5
2003 05 31    09 31.25   +07 20.5    1.320    1.422    73.8    43.2    21.8

Gareth V. Williams           (C) Copyright 2003 MPC           M.P.E.C. 2003-F62

Read MPEC 2003-F61 Read MPEC 2003-F63


Our Web policy. Index to the CBAT/MPC/ICQ pages.


Valid HTML 4.01!